Content
SEND FEEDBACK

Daily
Averages
Monthly
Summary
United States of America

SOUTH LAKE TAHOE - AIRPORT, CALIFORNIA


Home > North America > United States > California
Elevation: 6250 feet     Latitude: 38 54N     Longitude: 120 00W

WEATHER
 
SELECT A DAY
Number of Records: 174,537;   Date Range: 1/1/95 - 8/30/14
 
SHARE

PRINT THIS DATA

[ ← Previous Day ]
WEATHER ALMANAC - MAY 14, 2013
[ Next Day → ]
[ °C ]   °F
Weather ElementAverageHighLow
Temperature54.9 °F66.9 °F (10:53 am)39 °F (5:53 am)
Dewpoint36.1 °F42.1 °F (7:53 pm)32 °F (5:53 am)
Humidity53.1 %77 % (6:53 am)28 % (12:53 pm)
Barometer30.03 in30.06 in (1:53 am)29.99 in (9:53 am)
Wind Speed3.2 mph12.7 mph (2:53 pm)
Weather ElementAverage
Visibility10 mi
Wind DirectionENE (63 °)

Weather ElementTotal
Precipitation---
Heating Degree Days12.1 (Base 65)
Growing Degree Days3 (Base 50)
Averaged from 23 records on May 14, 2013
WEATHER CONDITIONS BREAKOUT
WIND DIRECTION BREAKOUT
WEATHER BY HOUR - MAY 14, 2013
[ °C ]   °F
Local TimeTemperatureDewpointHumidityBarometerVisibilityWind DirectionWind SpeedGust SpeedPrecipitationEventsConditions
1:53 AM44.1 °F34.0 °F68 %30.06 in10.0 miCalmClear
2:53 AM42.1 °F33.1 °F70 %30.06 in10.0 miSouth (180°)5.8 mphClear
3:53 AM41.0 °F33.1 °F73 %30.05 in10.0 miSSW (200°)3.5 mphClear
4:53 AM41.0 °F33.1 °F73 %30.04 in10.0 miSouth (170°)3.5 mphClear
5:53 AM39.0 °F32.0 °F76 %30.05 in10.0 miCalmClear
6:53 AM39.9 °F33.1 °F77 %30.06 in10.0 miCalmClear
7:53 AM50.0 °F37.9 °F63 %30.04 in10.0 miCalmClear
8:53 AM59.0 °F37.0 °F44 %30.03 inEast (80°)3.5 mphPartly Cloudy
9:53 AM64.9 °F37.0 °F36 %29.99 in10.0 miCalmClear
10:53 AM66.9 °F36.0 °F32 %29.99 in10.0 miNNE (20°)6.9 mphClear
11:53 AM64.9 °F34.0 °F32 %30.00 in10.0 miNNE (30°)5.8 mphClear
12:53 PM66.0 °F32.0 °F28 %30.00 in10.0 miCalmPartly Cloudy
1:53 PM66.0 °F37.0 °F34 %30.01 in10.0 miCalmClear
2:53 PM64.0 °F32.0 °F30 %30.04 in10.0 miSouth (180°)12.7 mphMostly Cloudy
3:53 PM63.0 °F34.0 °F34 %30.04 in10.0 miSSW (200°)10.4 mphClear
4:53 PM64.9 °F34.0 °F32 %30.02 in10.0 miSouth (190°)10.4 mphClear
5:53 PM64.9 °F35.1 °F33 %30.02 in10.0 miVariable4.6 mphClear
6:53 PM64.0 °F39.0 °F40 %30.02 in10.0 miSSW (200°)5.8 mphClear
7:53 PM57.9 °F42.1 °F56 %30.03 in10.0 miCalmClear
8:53 PM53.1 °F42.1 °F66 %30.03 in10.0 miCalmClear
9:53 PM51.1 °F42.1 °F71 %30.03 in10.0 miCalmClear
10:53 PM48.0 °F41.0 °F77 %30.03 in10.0 miCalmClear
11:53 PM46.9 °F39.9 °F77 %30.04 in10.0 miCalmClear
Hourly data recorded from KTVL, located miles away from South Lake Tahoe - Airport, California







STORIES FROM OUR PARTNERS